Погода в Салехарде

Погода в Салехарде : погода сейчас, прогноз погоды и архив. Всё, что Вы хотите узнать о погоде в Салехарде!

Хотите узнать прогноз погоды в Салехарде? Тогда Вам сюда: Погода в Салехарде

Поиск расширенной информации на нашем сайте:

Другие новости

Новости СМИ2

Главная страница сайта

Новости сайта

03.07.2017

Напоминаем, что на нашем специализированном сайте Метеоцентр.Азия вы можете получить высокодетализированные автоматические прогнозы погоды по пунктам России, СНГ и мира в авиационном формате (включающие направление и скорость ветра, видимость, явления погоды, количество и форму облачности, нижнюю и верхнюю границу облачности).


Погода в Салехарде - сегодня

Время (UTC), дата Ветер
(°,м/с) 
Видим.   Явления Облачность Т
(°С)
Тd
(°С)
f(%) Тe
(°С)
Pmin
(гПа)
dP
(гПа)
Po
(мм)
O2
(г/м3)
Тmin Tmax R s Состояние
почвы
18 19.09.17 020 (С) 4000 м  слаб. ливневой снег{морось}  10/10 300 м 
[St]
+4.4 +2.9 90 +2  1020.8  0.3  764  303           
21 19.09.17 040 (СВ) 4000 м  слаб. морось  10/10 300 м 
[St]
+3.9 +2.6 91 +2  1020.8  764  303           
00 20.09.17 040 (СВ) 10 км  {морось}  10/8 1000 м средняя 
[Sc diur, vesp|Ac trans]
+3.5 +2.2 91 +1  1020.8  764  304           
03 20.09.17 050 (СВ) 6{11}  20000 м    10/10 1000 м 
[Sc]
+3 +1.6 91 1021.6  0.8  765  305  +2.8    0.3    влажная 
06 20.09.17 050 (СВ) 5{10}  20000 м    10/6 1000 м средняя 
[Sc diur, vesp|Ac As]
+4.8 +2.2 83 +3  1022.3  0.8  765  303           
09 20.09.17 050 (СВ) 5{10}  20000 м    8/3 1000 м средняя, верхняя 
[Sc diur, vesp|Ac trans|Ci fib]
+6.2 +1.9 74 +4  1022.5  0.2  765  301           
12 20.09.17 050 (СВ) 6-10{10}  20000 м    8/3 1000 м средняя 
[Sc diur, vesp|Ac As]
+4.2 +0.9 79 +2  1023.3  0.8  766  304           
15 20.09.17 050 (СВ) 3{11}  10 км    8/3 1000 м средняя 
[Sc diur, vesp|Ac trans]
+2.4 +0.4 87 +1  1024.6  1.2  767  306    +6.4       
18 20.09.17 030 (СВ) 3{11}  10 км    9/5 600 м средняя 
[Sc|Ac trans]
+1.7 +0 88 1025.2  0.6  767  307           
21 20.09.17 060 (СВ) 10 км    10/6 600 м средняя 
[Sc|Ac As]
+1.6 -0 89 +2  1024.9  -0.2  767  307           
00 21.09.17 тихо ()   10 км    10/10 600 м 
[Sc]
+1.5 -0 90 +2  1025  767  307           
03 21.09.17 280 (З) 20000 м    10/8 300 м средняя 
[Frnb|Ac trans]
+1.9 +0.1 88 +1  1025  0.1  767  307  +1.1        влажная 
06 21.09.17 310 (СЗ) 20000 м    10/10 600 м 
[Sc]
+4.6 -0.1 72 +4  1025.1  0.1  767  304           
09 21.09.17 030 (СВ) 20000 м    10/6 600 м средняя 
[Sc|Ac trans]
+4.6 +0 72 +3  1025.9  0.8  768  304           
12 21.09.17 040 (СВ) 20000 м  в посл. час ливневой дождь  10/8 300 м кучево-дожд., средняя 
[Cb calv|Ac trans]
+3.2 -2.6 66 +1  1027.8  1.9  769  307           
15 21.09.17 330 (СЗ) 1{10}  10 км    8/5 1000 м средняя 
[Sc|Ac trans]
+0.9 -4.3 68 +2  1029  1.1  770  310    +5.4       
18 21.09.17 010 (С) 2{10}  10 км    8/4 600 м средняя 
[Sc|Ac trans]
+1.9 -2.4 73 +1  1029.7  0.7  771  309           
21 21.09.17 020 (С) 10 км    8/3 600 м средняя 
[Sc|Ac As]
+1.5 -2.8 73 +1  1030.4  0.7  771  309           
00 22.09.17 320 (СЗ) 10 км    10/0 средняя, верхняя 
[Ac trans|Ci fib]
-0.1 -2.3 85 +1  1031.1  0.7  772  311           
03 22.09.17 350 (С) 20000 м    8/4 600 м средняя, верхняя 
[Sc|Ac trans|Ci fib]
+0.6 -2.2 81 +1  1031.5  0.4  772  311  -1.5        замёрзшая 
06 22.09.17 280 (З) 20000 м    9/5 600 м средняя 
[Sc|Ac trans]
+4.2 -2.1 64 +3  1031.3  -0.2  772  307           
09 22.09.17 260 (З) 20000 м    8/4 600 м средняя 
[Sc|Ac trans]
+4.5 -1.8 64 +3  1030.7  -0.5  772  306           
12 22.09.17 290 (З) 20000 м    8/5 1000 м средняя 
[Sc|Ac trans]
+5.1 -1.4 63 +5  1030.9  0.1  772  305           
18 22.09.17 330 (СЗ) 10 км    5/0 средняя 
[Ac trans]
+0.2 -1.6 88 +1  1031.5  0.3  772  311           
21 22.09.17 190 (Ю) 10 км    10/0 средняя 
[Ac und]
+0.1 -0.9 93 +1  1031.5  772  311           
Время (UTC), дата Ветер
(°,м/с) 
Видим.   Явления Облачность Т
(°С)
Тd
(°С)
f(%) Тe
(°С)
Pmin
(гПа)
dP
(гПа)
Po
(мм)
O2
(г/м3)
Тmin Tmax R s Состояние
почвы

Для получения пояснительной информации подведите курсор к названию столбца.

ПОГОДА в Салехарде - архив

Всё, что Вы хотите узнать о погоде в Салехарде - удобно и подробно!

Выберите нужную дату (начиная с 1 января 2015* года) и нажмите кнопку "Найти".
Будут отображены архивные сводки погоды по пункту Салехард, начиная с указанной даты.


Отображать данные в формате CSV (для использования в таблицах Excel)


Внимание! Наш архив погоды предназначен исключительно для личного некоммерческого использования в познавательных целях. Если Вам необходимы официальные справки о состоянии погоды (для производственных, юридических, коммерческих и т.п. целей), обращайтесь в органы Росгидромета.

*Примечание: данная дата относится к архиву по метеостанциям СССР (Россия, СНГ, Балтия).
Архив по метеостанциям Зарубежной Европы и Азии (кроме Китая) хранится 10 дней, по другим регионам земного шара (Китай, Африка, Америка, Австралия, Океания) - 1 день.

Салехард - район местоположения метеостанции


Название, широта, долгота, высота метеостанции:
Салехард (город) 66.5°ш. 66.7°д. 16 м над ур. моря [Российская Федерация]

Дополнительная информация

В oтличие oт бoльшинства пoгoдных сайтoв мы публикуем пoдрoбную метеoинфoрмацию в детальнoм прoфессиoнальнoм фoрмате.

Характеристики температуры и влажнoсти вoздуха измеряются на высoте 2 м в тени вдали oт зданий и деревьев.
Скoрoсть ветра измеряется на высoте 10 м (на урoвне рoста челoвека скoрoсть ветра ниже в 1.5-2 раза). Если метеoстанция нахoдится в гoрoде или в лесу, тo скoрoсть ветра занижена на 2-4 м/с пo сравнению с oткрытым местoм. Скoрoсть ветра над акватoриями крупных рек и oзёр, а также на вершинах хoлмoв на 2-5 м/с выше, чем в oбычных услoвиях.
Атмoсфернoе давление в разных тoчках местнoсти мoжет значительнo oтличаться oт давления на метеoстанции, в зависимoсти oт услoвий рельефа (при пoдъёме на 10 м давление пoнижается примернo на 1 мм рт.ст.).